Notices

What's New in latest Release from April 7th, 2021:

- Updated Glossary, including Speed of Maximum Gust, and Total Hourly Precipitation

- Updated national and regional climate services offices contacts and prices information

- Addition of station inventory lists for 1981-2010, 1971-2000, and 1961-1990 Normals.

If you haven't already, please take our survey and provide feedback about our website: https://eccc.sondage-survey.ca/f/LanguageSelection.aspx?s=442ca660-fcf1-47c0-95a9-59707d6fd709

Hourly Data Report for June 02, 2021

OTTAWA INTL A
ONTARIO
Current Station Operator: NAVCAN

45°19'00.000" N
75°40'00.000" W
114.90 m
6106001
71628
YOW

Download Data

Hourly Data (June 2021)
Hourly Data Report for June 2, 2021
TIME
LST
Temp Definition
°C
Dew Point Definition
°C
Rel Hum Definition
%
Precip. Amount Definition
mm

Wind Dir Definition
10's deg

Wind Spd Definition
km/h
Visibility Definition
km
Stn Press Definition
kPa
Hmdx Definition


Wind Chill Definition


Weather Definition


00:00 14.0 8.5 69   24 10 24.1 100.69     LegendNANA
01:00 13.9 8.3 69   28 8 24.1 100.68     Clear
02:00 12.0 8.0 76   22 7 24.1 100.70     LegendNANA
03:00 12.2 7.6 73   23 7 24.1 100.70     LegendNANA
04:00 9.5 7.1 85   19 7 24.1 100.73     Clear
05:00 9.7 7.2 85   20 4 24.1 100.78     LegendNANA
06:00 13.4 8.9 74   24 4 24.1 100.81     LegendNANA
07:00 17.0 9.3 60   21 7 24.1 100.83     Mainly Clear
08:00 18.8 9.6 55   21 8 24.1 100.84     LegendNANA
09:00 21.7 8.7 43   24 8 24.1 100.80     LegendNANA
10:00 23.1 7.7 37   24 13 24.1 100.75     Clear
11:00 24.5 7.8 34   17 14 24.1 100.71 25   LegendNANA
12:00 25.7 7.6 31   18 15 24.1 100.63 26   LegendNANA
13:00 25.8 7.6 31   22 13 24.1 100.57 26   Mostly Cloudy
14:00 26.8 6.6 27   22 17 24.1 100.50 27   LegendNANA
15:00 26.2 5.4 26   19 22 24.1 100.44 26   LegendNANA
16:00 25.6 5.7 27   21 18 24.1 100.39 25   Mostly Cloudy
17:00 26.4 7.2 29   20 11 24.1 100.34 26   LegendNANA
18:00 25.0 5.5 28   21 20 24.1 100.30     LegendNANA
19:00 23.1 6.3 33   21 12 24.1 100.28     Mostly Cloudy
20:00 20.5 7.3 42   18 9 24.1 100.28     LegendNANA
21:00 18.8 7.9 49   18 10 24.1 100.31     LegendNANA
22:00 18.2 10.3 60   18 10 24.1 100.31     Clear
23:00 17.7 12.5 71   18 10 24.1 100.28     LegendNANA

Notes on Data Quality.

Legend

  • E = Estimated
  • M = Missing
  • NA = Not Available*
  • [empty] = Indicates an unobserved value
Date modified: